Simultaneous Nadir Overpasses (SNOs) Predictions

Prediction of SNOs between GOES-17 and TERRA Satellite Orbit:

Table of predicted SNOs for the next 14.0 days since TLE Epoch: 11/2/2019
Index Date Time (GOES-17) GOES-17 Lat,Lon TERRA Lat,Lon Distance(km) Time Diff (sec)
1 11/02/2019 07:48:53 0.00,-137.21 -0.43,-139.35 242.39 80
2 11/04/2019 07:34:01 0.01,-137.20 0.16,-136.38 93.16 80
3 11/04/2019 19:55:17 -0.01,-137.20 0.90,-141.54 493.82 80
4 11/06/2019 07:21:50 0.01,-137.19 0.82,-133.43 428.39 80
5 11/06/2019 19:43:05 -0.01,-137.19 0.30,-138.58 158.64 80
6 11/08/2019 19:33:34 -0.01,-137.17 -0.36,-135.63 176.21 80
7 11/09/2019 07:54:58 0.01,-137.17 -0.75,-140.82 414.07 80
8 11/11/2019 07:42:46 0.01,-137.15 -0.15,-137.85 80.01 80
9 11/13/2019 07:30:34 0.02,-137.12 0.47,-134.89 253.29 80
10 11/13/2019 19:49:10 -0.02,-137.11 0.60,-140.05 334.51 80
11 11/15/2019 19:36:58 -0.02,-137.07 -0.02,-137.09 2.38 80




NCC Satellite Simultaneous Nadir Overpasses (SNOs) Prediction Service
